Wind_Speed
6 6 7 7 8 7 7 7 7 7 7 8 8 8 8 8 9 9 9 8 9 9 9 9 9 9 9 9 9 8 9 9 10 10 10 10 11 11 12 12 13 13 13
7 8 7 7 8 7 7 7 7 7 8 8 8 8 8 8 8 8 9 9 9 9 9 9 9 9 9 9 9 9 10 10 10 11 11 11 11 12 12 12 13 13 12
8 8 7 8 8 8 8 7 7 8 8 8 8 8 9 9 9 9 9 9 9 9 10 10 10 10 9 9 9 10 10 11 11 11 11 11 12 12 12 13 13 13 13
9 9 8 8 9 9 8 8 8 8 8 8 8 9 9 9 10 9 9 9 10 10 10 10 11 11 10 10 10 10 11 11 11 12 12 12 12 12 13 13 13 13 14
10 10 9 9 9 9 9 9 9 9 9 9 9 9 9 9 9 9 9 10 10 10 11 11 10 11 11 11 11 11 12 12 12 12 12 13 14 14 15 14 14 14 15
10 10 10 9 9 10 10 9 9 8 9 9 9 9 10 9 10 10 10 10 10 11 11 11 11 11 11 12 12 12 13 13 13 13 13 14 15 15 16 16 15 15 16
10 10 10 10 10 10 10 10 9 9 10 9 9 9 9 10 10 10 11 11 11 12 12 12 12 12 12 12 12 12 13 13 13 13 14 15 15 16 16 16 16 16 16
10 11 10 10 10 10 10 10 10 10 10 10 10 11 11 10 10 11 11 12 12 12 12 12 12 12 12 12 12 12 13 13 13 14 14 14 14 14 15 15 16 16 17
9 10 10 10 10 10 11 11 11 11 11 11 11 12 12 11 12 12 12 12 12 12 12 13 12 12 13 12 13 13 13 14 14 14 14 13 13 13 14 14 14 15 16
9 10 10 11 11 11 11 11 11 12 12 12 12 12 13 13 13 13 13 13 13 12 12 12 13 13 13 13 13 13 14 14 14 14 14 14 13 14 14 15 15 16 17
10 10 11 11 11 11 11 11 12 12 12 13 13 13 14 14 15 14 14 14 14 13 13 13 14 13 14 14 15 15 15 15 15 15 15 15 15 15 15 16 16 17 18
10 11 11 11 10 10 11 11 12 12 13 13 14 14 14 15 15 15 15 14 14 14 14 15 15 15 15 16 16 16 16 16 16 16 16 16 16 16 17 17 18 19 19
11 11 11 11 11 11 12 12 13 14 14 14 14 14 14 14 15 15 15 15 15 15 14 15 16 16 16 17 17 17 17 17 17 17 17 17 18 18 19 19 20 20 20
12 12 12 12 12 13 13 13 14 14 15 15 15 15 15 15 15 15 16 16 16 16 16 16 16 17 17 17 18 18 18 18 18 18 18 19 19 19 20 20 21 21 22
13 13 13 13 13 13 14 14 15 15 15 15 15 15 15 16 16 16 16 16 16 16 16 16 17 18 18 18 19 19 19 19 19 19 19 20 20 21 20 21 21 21 22
14 13 13 14 14 15 15 15 16 16 16 16 16 16 16 16 16 16 16 16 16 16 17 17 18 18 18 19 20 20 20 21 20 20 20 20 21 22 22 22 22 22 22
14 14 14 14 15 15 15 16 16 16 16 16 17 17 17 17 17 17 17 17 17 17 18 18 19 19 20 20 20 20 21 21 22 22 22 22 22 23 23 23 23 23 23
15 15 15 16 16 17 17 17 17 17 17 17 17 18 17 17 17 17 18 18 18 18 19 19 19 20 21 21 21 21 21 22 22 23 23 23 24 24 24 24 24 25 25
16 17 17 18 17 17 18 17 17 17 17 17 17 17 17 18 18 19 19 19 19 19 19 19 19 20 21 21 22 22 23 23 23 24 24 24 24 25 25 26 26 27 27
18 18 19 19 18 18 18 18 18 19 19 19 18 18 18 18 19 19 19 20 20 20 20 21 21 21 21 22 22 22 22 23 23 24 24 25 25 26 27 27 28 28 28
19 19 19 19 19 18 19 19 20 20 20 20 19 19 19 20 20 20 20 21 21 21 22 23 22 23 23 23 23 23 23 23 24 24 25 26 27 27 28 28 29 29 29
20 20 20 19 19 19 20 20 20 20 20 20 20 20 20 21 21 22 22 22 22 23 23 24 24 24 24 24 24 25 25 25 25 26 26 27 28 28 29 29 30 30 31
21 21 21 20 20 20 20 21 21 21 21 22 22 22 22 22 22 23 23 24 24 24 24 25 25 25 25 26 26 27 26 26 27 27 28 28 29 30 31 31 31 31 32
22 22 22 22 22 22 22 22 22 22 22 23 23 23 23 23 23 24 24 24 25 25 26 26 26 26 26 27 27 27 27 26 27 28 29 29 30 30 31 32 32 32 33
23 23 23 23 24 24 24 24 24 24 24 24 24 24 24 24 25 25 25 25 25 25 26 26 26 27 27 27 28 28 28 28 28 29 30 31 31 31 31 31 32 33 34
24 24 24 24 24 24 25 25 25 25 25 24 25 25 25 25 26 26 26 25 26 27 27 27 27 27 27 27 28 28 29 30 30 29 30 31 31 32 32 33 33 34 35
Wind_Direction
278 279 279 281 281 281 280 282 283 284 286 287 286 287 288 286 279 276 274 274 277 277 274 279 286 283 279 280 278 277 281 280 271 265 265 264 263 262 260 260 257 255 258
282 284 285 287 286 284 280 280 280 284 287 288 287 286 287 289 286 282 279 276 276 275 277 282 285 284 285 284 282 283 283 284 278 270 265 265 264 265 263 261 260 258 262
283 286 284 285 285 285 281 280 279 283 287 289 289 287 287 286 287 286 286 281 280 279 279 281 279 280 280 281 282 283 282 281 279 275 271 268 265 262 262 260 261 261 262
276 279 282 285 285 282 278 278 278 284 286 286 286 288 292 291 288 288 286 287 285 281 279 283 280 278 279 282 282 284 282 280 279 277 274 271 270 267 265 263 263 262 262
278 279 284 285 284 281 278 278 279 284 285 286 287 290 294 291 289 288 287 285 285 284 283 285 283 282 284 284 284 285 281 279 278 277 275 273 272 271 268 265 263 263 264
280 279 283 283 283 282 280 279 281 283 285 286 288 291 294 292 287 283 284 284 284 283 283 286 285 286 286 284 284 283 284 282 279 277 277 276 274 272 268 266 264 264 264
283 280 279 281 282 280 278 279 279 282 286 289 290 294 296 294 290 289 289 288 285 281 281 282 281 282 283 283 283 284 285 285 283 282 281 279 275 272 268 266 265 265 265
281 280 280 278 277 273 273 276 278 282 288 289 289 291 292 292 291 292 293 293 291 288 285 286 286 284 283 284 284 283 283 284 286 286 284 283 281 277 273 268 267 266 266
284 282 279 278 276 272 273 277 278 282 287 288 289 290 290 290 288 290 294 294 292 290 286 285 286 286 286 287 286 286 286 285 286 288 288 287 285 282 278 274 274 272 270
283 282 280 278 277 276 276 277 278 283 285 287 289 288 289 289 289 290 291 293 293 289 285 284 287 285 286 287 286 288 288 287 286 288 287 287 286 283 279 277 276 274 273
284 283 282 280 281 279 279 280 282 284 286 287 290 288 289 290 288 289 289 290 291 288 285 285 284 285 285 287 286 287 287 286 285 286 285 285 284 283 280 278 278 277 276
284 284 284 282 282 281 282 282 284 287 288 289 291 291 290 289 287 287 289 290 289 287 285 287 284 284 284 286 287 287 287 286 287 285 284 284 283 282 281 280 280 279 278
285 283 284 282 282 284 284 284 286 289 288 290 291 290 291 290 289 288 287 287 286 284 283 285 283 283 284 285 286 288 288 287 287 286 285 284 284 284 284 284 284 283 282
281 282 283 284 284 284 286 286 287 287 287 288 289 289 289 289 292 292 289 287 286 283 282 284 283 284 285 285 285 287 288 287 286 286 285 284 284 284 284 284 284 283 283
284 282 283 285 286 286 286 287 286 287 288 288 289 290 289 289 289 289 289 288 287 285 284 284 286 286 286 286 287 286 286 286 286 286 286 286 285 285 286 286 286 285 285
283 283 283 285 287 288 287 286 287 288 288 288 289 290 290 288 288 288 287 287 287 286 286 286 286 287 289 288 287 287 286 286 285 286 286 286 286 287 287 287 287 286 285
283 283 282 286 288 288 289 288 289 289 289 289 289 288 287 287 286 287 287 287 287 288 288 288 286 287 290 292 290 288 288 286 285 285 285 285 285 286 285 285 286 286 286
284 285 285 286 288 288 288 289 289 289 290 289 288 287 287 288 289 290 289 288 287 287 288 289 287 287 290 291 291 289 288 286 286 285 285 285 285 285 284 284 285 285 285
286 287 287 288 288 288 287 288 288 288 289 290 290 289 289 288 289 290 290 289 288 287 288 289 289 290 292 292 291 290 290 288 287 286 285 285 285 285 285 285 286 285 285
285 286 288 289 287 286 286 288 289 289 289 289 288 288 288 288 289 290 290 289 288 287 287 288 287 288 290 291 290 290 289 289 289 288 287 285 285 285 286 287 287 286 285
285 286 288 288 287 287 287 288 289 289 289 288 287 287 287 288 289 290 291 290 288 288 288 288 287 288 289 289 290 289 289 289 289 289 288 287 287 286 286 286 286 285 285
283 285 286 286 287 288 288 288 289 289 289 288 286 286 287 289 290 291 291 290 288 287 288 288 287 288 288 289 290 290 289 289 289 288 287 287 287 288 289 289 288 287 287
284 284 285 286 287 287 288 289 289 287 288 289 287 287 288 288 289 291 291 290 290 289 288 288 288 290 289 289 289 289 289 288 289 289 289 289 289 290 290 289 289 288 288
284 283 284 284 285 287 287 287 288 288 288 289 288 287 287 288 289 290 291 292 290 289 290 290 290 291 292 291 290 290 289 290 291 292 291 291 290 290 290 289 289 289 289
283 283 283 284 284 285 286 286 286 286 287 287 288 287 287 287 288 289 290 291 291 291 292 292 293 294 294 294 293 292 292 292 292 293 292 291 290 290 290 289 289 290 289
283 283 283 284 285 286 286 285 285 285 285 286 287 287 287 287 288 289 290 291 292 293 293 293 294 294 295 295 294 294 294 293 293 294 294 293 292 291 291 290 290 290 291
Height
5869 5869 5869 5869 5868 5868 5868 5868 5867 5867 5867 5867 5866 5866 5866 5866 5866 5866 5866 5866 5866 5866 5866 5866 5866 5866 5865 5865 5865 5865 5865 5865 5865 5866 5866 5866 5866 5867 5867 5868 5869 5870 5870
5867 5867 5867 5867 5867 5867 5866 5866 5866 5865 5865 5865 5865 5865 5864 5864 5864 5864 5864 5864 5864 5864 5864 5864 5864 5864 5863 5863 5863 5863 5863 5863 5863 5863 5863 5863 5864 5864 5865 5865 5866 5867 5867
5866 5866 5865 5865 5865 5865 5865 5864 5864 5864 5864 5863 5863 5863 5863 5862 5862 5862 5862 5862 5862 5862 5862 5862 5862 5862 5861 5861 5861 5861 5861 5861 5860 5860 5860 5860 5861 5861 5861 5862 5863 5864 5864
5864 5864 5864 5864 5864 5864 5863 5863 5863 5862 5862 5862 5862 5861 5861 5861 5860 5860 5861 5861 5861 5860 5860 5860 5860 5860 5859 5859 5859 5858 5858 5858 5857 5857 5857 5857 5857 5858 5858 5859 5859 5860 5861
5862 5862 5862 5862 5862 5862 5861 5861 5861 5861 5860 5860 5860 5860 5859 5859 5859 5858 5859 5859 5858 5858 5858 5858 5858 5857 5857 5856 5856 5856 5855 5855 5854 5854 5854 5854 5853 5854 5854 5855 5856 5857 5858
5859 5860 5860 5860 5860 5860 5859 5859 5859 5859 5859 5858 5858 5858 5857 5857 5857 5856 5856 5856 5856 5856 5856 5855 5855 5855 5854 5854 5854 5853 5853 5852 5851 5851 5850 5850 5849 5849 5849 5850 5851 5852 5853
5857 5857 5858 5858 5858 5858 5857 5857 5857 5857 5857 5856 5856 5856 5855 5855 5855 5854 5854 5854 5853 5853 5853 5853 5853 5852 5852 5851 5851 5850 5850 5849 5848 5848 5847 5845 5844 5844 5844 5845 5847 5848 5849
5855 5855 5855 5855 5855 5855 5855 5855 5855 5855 5854 5854 5854 5854 5854 5854 5853 5852 5852 5851 5851 5850 5850 5850 5850 5849 5849 5849 5848 5848 5847 5846 5845 5845 5843 5842 5841 5840 5840 5842 5843 5844 5845
5853 5853 5853 5853 5853 5853 5853 5852 5852 5852 5852 5852 5851 5851 5851 5851 5850 5850 5849 5849 5848 5848 5848 5847 5847 5847 5846 5846 5845 5844 5844 5843 5842 5842 5840 5839 5838 5837 5838 5838 5839 5840 5841
5851 5851 5851 5851 5851 5850 5850 5850 5850 5850 5849 5849 5849 5848 5848 5848 5848 5847 5847 5846 5845 5845 5845 5844 5844 5843 5843 5843 5842 5841 5841 5840 5839 5838 5838 5837 5836 5835 5835 5835 5836 5836 5837
5849 5849 5848 5848 5848 5848 5848 5848 5847 5847 5847 5847 5846 5845 5845 5844 5844 5844 5843 5843 5842 5842 5841 5841 5841 5840 5839 5839 5839 5838 5837 5837 5836 5835 5834 5834 5833 5832 5832 5832 5832 5832 5832
5846 5846 5846 5845 5845 5845 5845 5845 5845 5844 5844 5844 5843 5842 5842 5841 5840 5840 5840 5839 5839 5839 5838 5838 5837 5836 5836 5836 5835 5834 5833 5833 5832 5831 5830 5830 5829 5829 5828 5828 5827 5827 5827
5844 5843 5843 5843 5843 5842 5842 5842 5842 5841 5841 5840 5840 5839 5838 5838 5837 5837 5836 5835 5835 5835 5834 5834 5833 5832 5832 5832 5831 5830 5829 5829 5828 5827 5826 5825 5825 5824 5824 5823 5822 5822 5822
5840 5840 5840 5840 5840 5839 5839 5839 5838 5838 5837 5837 5836 5835 5835 5834 5833 5833 5832 5832 5831 5830 5830 5830 5829 5828 5827 5827 5826 5825 5824 5824 5823 5822 5821 5821 5820 5819 5818 5818 5817 5816 5816
5837 5836 5836 5837 5837 5836 5836 5835 5835 5834 5834 5833 5832 5832 5831 5830 5829 5828 5828 5827 5827 5826 5826 5825 5824 5823 5822 5822 5821 5820 5819 5818 5818 5817 5816 5815 5814 5813 5813 5812 5811 5810 5810
5834 5834 5833 5833 5833 5833 5832 5832 5831 5830 5830 5829 5828 5827 5827 5826 5825 5824 5823 5822 5822 5821 5821 5820 5819 5818 5817 5816 5815 5815 5814 5813 5812 5811 5811 5810 5809 5808 5807 5806 5805 5804 5803
5831 5831 5830 5830 5830 5829 5828 5828 5827 5826 5826 5825 5824 5823 5822 5821 5821 5820 5819 5818 5817 5816 5815 5815 5814 5813 5812 5811 5810 5809 5808 5807 5806 5805 5804 5804 5803 5801 5800 5799 5798 5797 5796
5827 5827 5827 5826 5826 5825 5824 5823 5823 5822 5821 5820 5819 5818 5817 5817 5816 5815 5814 5813 5812 5811 5810 5810 5809 5808 5807 5805 5804 5803 5802 5801 5800 5799 5798 5797 5796 5795 5793 5792 5791 5790 5789
5824 5823 5823 5822 5821 5821 5820 5819 5818 5817 5816 5815 5814 5814 5813 5812 5811 5810 5809 5808 5807 5806 5805 5804 5803 5802 5801 5799 5798 5797 5795 5794 5793 5792 5791 5790 5789 5787 5786 5785 5784 5783 5781
5820 5819 5818 5817 5817 5816 5815 5814 5813 5812 5811 5810 5809 5808 5808 5807 5806 5805 5803 5802 5801 5800 5799 5798 5797 5796 5795 5793 5792 5791 5789 5788 5786 5785 5784 5783 5781 5780 5778 5777 5776 5774 5773
5815 5814 5813 5812 5812 5811 5810 5809 5808 5807 5806 5805 5804 5803 5802 5801 5800 5799 5798 5796 5795 5794 5793 5792 5790 5789 5788 5787 5785 5784 5782 5781 5779 5778 5777 5775 5774 5772 5770 5769 5767 5765 5763
5809 5809 5808 5807 5806 5806 5805 5804 5803 5801 5800 5799 5798 5797 5796 5795 5793 5792 5791 5790 5789 5787 5786 5785 5783 5782 5781 5779 5778 5776 5774 5773 5772 5771 5769 5767 5765 5763 5762 5760 5758 5756 5754
5804 5803 5802 5802 5801 5800 5799 5798 5797 5795 5794 5793 5792 5791 5790 5788 5787 5786 5784 5783 5781 5780 5779 5777 5776 5774 5773 5771 5770 5768 5766 5764 5763 5761 5760 5758 5756 5754 5752 5750 5748 5747 5745
5797 5797 5796 5795 5795 5794 5793 5791 5790 5789 5788 5787 5785 5784 5783 5782 5781 5779 5777 5776 5774 5772 5771 5769 5768 5766 5764 5762 5760 5759 5757 5755 5754 5751 5750 5749 5747 5745 5743 5740 5738 5736 5734
5790 5790 5789 5788 5788 5787 5786 5784 5783 5782 5781 5780 5779 5777 5776 5775 5774 5772 5770 5769 5767 5765 5763 5761 5759 5757 5755 5753 5751 5750 5748 5746 5745 5743 5740 5738 5737 5735 5733 5730 5728 5725 5723
5782 5782 5782 5781 5780 5779 5778 5777 5776 5775 5774 5773 5772 5770 5769 5768 5766 5764 5763 5761 5759 5757 5755 5753 5751 5749 5747 5744 5742 5740 5738 5737 5735 5733 5730 5728 5726 5724 5722 5720 5717 5714 5712